[[{"header":{"parameterUnit":"m.s-1","parameterCategory":1,"la1":30.2991,"la2":30.254,"lo1":-89.0895,"lo2":-89.0444,"dy":0.0017,"dx":0.0017,"nx":28,"ny":28,"refTime":"2023-09-10T03:00:00:Z","depth":0,"parameterNumber":2,"parameterNumberName":"U-component_of_WINDS"},"data":[0,0,0,0,0,0,0,0,0,0,0,0,0,0,0,0,0,0,0,0,0,0,0,0,0,0,0,0,0,0,0,0,0,0,0,0,0,0,0,0,0,0,0,0,0,0,0,0,0,0,0,0,0,0,0,0,0,0,0.3607,0.3608,0,0.3681,0.3682,0.3683,0.3724,0.3724,0.3724,0.3724,0.3802,0.3804,0.3806,0,0,0,0,0,0,0,0,0,0,0,0,0,0.3502,0.3504,0.3607,0.3608,0.3609,0.3681,0.3682,0.3683,0.3724,0.3724,0.3724,0.3724,0.3801,0.3804,0.3806,0,0,0,0,0,0,0,0,0,0,0,0,0,0.3559,0.3504,0.3607,0.3638,0.3641,0.3681,0.3682,0.3684,0.3724,0.3724,0.3724,0.3724,0.3801,0.3803,0.3806,0.3822,0,0,0.3816,0.3817,0,0,0,0,0,0,0,0,0.3556,0.3563,0.3632,0.3636,0.364,0.3693,0.3674,0.373,0.3724,0.3692,0.3724,0.3724,0.3766,0.3772,0.3785,0.3825,0.3829,0.3816,0.3818,0.3819,0.382,0,0,0,0,0,0,0,0.3552,0.356,0.3636,0.3633,0.3638,0.3649,0.3657,0.3685,0.3727,0.3695,0.3698,0.3706,0.3768,0.3782,0.3788,0.383,0.3816,0.3818,0.382,0.3821,0.3887,0.3887,0,0,0,0,0,0,0.3543,0.3556,0.3634,0.3639,0.3597,0.365,0.366,0.3676,0.3727,0.3735,0.3706,0.3708,0.3777,0.3784,0.379,0.3812,0.3819,0.3822,0.3823,0.3887,0.3887,0.3886,0,0,0,0,0,0,0.354,0.3549,0.3631,0.3598,0.361,0.3652,0.367,0.3677,0.3692,0.3736,0.3744,0.3713,0.3778,0.3786,0.3814,0.3815,0.3823,0.3826,0.3887,0.3887,0.3887,0.3854,0,0,0,0,0,0,0.3537,0.3548,0.3554,0.3598,0.3611,0.3652,0.367,0.3679,0.3697,0.37,0.3744,0.3752,0.3778,0.3809,0.3817,0.3819,0.3828,0.3887,0.3887,0.3887,0.3855,0.3853,0.3851,0,0,0,0,0,0.3533,0.3542,0.3554,0.3563,0.3619,0.3652,0.366,0.369,0.3697,0.3703,0.3731,0.375,0.3814,0.3811,0.382,0.3824,0.3887,0.3887,0.3887,0.3856,0.3854,0.3851,0,0,0,0,0,0,0.3497,0.3548,0.3562,0.3586,0.3614,0.3659,0.3668,0.3686,0.3714,0.3716,0.3752,0.3762,0.3786,0.3808,0.3804,0.3842,0.3852,0.3854,0.3826,0.3824,0.3822,0.3816,0.383,0,0,0,0,0,0.3492,0.3514,0.3558,0.3574,0.3588,0.3625,0.3641,0.3662,0.3693,0.3706,0.3736,0.3766,0.3793,0.381,0.3837,0.3859,0.3869,0.3866,0.3864,0.3862,0.3863,0.3876,0.3875,0.3886,0.3886,0.3886,0,0,0.3482,0.3512,0.3524,0.3568,0.3593,0.3615,0.3635,0.3658,0.3675,0.3709,0.3737,0.376,0.3796,0.3821,0.3833,0.384,0.3862,0.3862,0.386,0.3862,0.3876,0.3875,0.3874,0.3886,0.3886,0.3886,0,0,0.3474,0.3499,0.3516,0.354,0.3577,0.3602,0.3605,0.3648,0.3664,0.3692,0.3718,0.374,0.3785,0.381,0.3828,0.383,0.3849,0.3838,0.3827,0.384,0.3839,0.3838,0.3839,0.3839,0.3839,0.3839,0.3839,0,0.3456,0.349,0.3522,0.3543,0.3562,0.3593,0.3611,0.3633,0.3677,0.3689,0.3696,0.3754,0.378,0.3811,0.3812,0.3826,0.3832,0.3833,0.3836,0.3836,0.3836,0.3837,0.3837,0.3837,0.3838,0.3838,0.3838,0,0.3467,0.3491,0.35,0.3541,0.3561,0.358,0.3615,0.3631,0.365,0.3675,0.3703,0.3736,0.3771,0.378,0.3799,0.3814,0.3816,0.3829,0.3841,0.3833,0.3834,0.3835,0.3835,0.3836,0.3836,0.3837,0,0,0.3439,0.3497,0.35,0.3519,0.3562,0.3581,0.3602,0.3635,0.3648,0.3678,0.3696,0.3734,0.3746,0.3767,0.379,0.3801,0.38,0.3812,0.3814,0.3809,0.3818,0.3808,0.3808,0.3813,0.3813,0.3813,0.3815,0,0.3437,0.3475,0.3504,0.3532,0.3554,0.3584,0.3603,0.3631,0.3655,0.3678,0.3704,0.373,0.3744,0.3757,0.3769,0.3797,0.3803,0.3798,0.3831,0.3832,0.382,0.3809,0.3799,0.3799,0.3816,0.3816,0.3816,0,0.344,0.3468,0.3497,0.3538,0.3548,0.3564,0.3597,0.3618,0.3652,0.3668,0.3691,0.3714,0.3739,0.3748,0.3782,0.3778,0.3793,0.3809,0.381,0.3814,0.3823,0.3813,0.38,0.38,0.3818,0.3818,0.3818,0,0.3416,0.3461,0.3484,0.35,0.3548,0.3558,0.3579,0.3613,0.3631,0.366,0.3672,0.3703,0.372,0.3745,0.3776,0.378,0.3806,0.3818,0.3821,0.382,0.3825,0.3824,0.3814,0.3835,0.3835,0.3835,0.3835,0,0.3411,0.3427,0.3474,0.3488,0.3508,0.3542,0.3561,0.3584,0.3614,0.3634,0.3662,0.3681,0.3721,0.3744,0.3769,0.3793,0.3801,0.3815,0.3821,0.3812,0.381,0.3822,0.3823,0.3835,0.3835,0.3835,0.3835,0,0.3387,0.3419,0.3446,0.349,0.3501,0.3514,0.3551,0.3567,0.3592,0.3617,0.3624,0.3664,0.3693,0.3726,0.3766,0.3783,0.3805,0.3815,0.3793,0.3797,0.3798,0.3797,0.3795,0.3796,0.3816,0.3816,0.3816,0,0.3381,0.3395,0.344,0.3455,0.3474,0.3498,0.3517,0.3551,0.3569,0.3608,0.3619,0.365,0.3676,0.3721,0.3754,0.3785,0.3795,0.3792,0.38,0.379,0.3795,0.3793,0.3795,0.379,0.3789,0.3789,0.3789,0,0.3368,0.3383,0.3408,0.3439,0.346,0.3486,0.3513,0.3524,0.3564,0.3583,0.3613,0.3633,0.3674,0.3704,0.3739,0.3761,0.3782,0.3786,0.3788,0.3779,0.3766,0.3773,0.3787,0.3786,0.3786,0.3787,0.3787,0.3787,0.3353,0.3367,0.34,0.3427,0.3451,0.3476,0.3493,0.352,0.3545,0.358,0.3599,0.3628,0.3662,0.3711,0.3732,0.3756,0.3763,0.3766,0.3767,0.3767,0.3764,0.3763,0.3762,0.3763,0.3763,0.3763,0.3763,0,0.3341,0.3364,0.3389,0.3426,0.3447,0.3464,0.3496,0.3513,0.3538,0.3567,0.3592,0.3626,0.3656,0.3691,0.3723,0.3735,0.3746,0.3743,0.3742,0.3747,0.3756,0.3751,0.3734,0.3734,0.3734,0.3734,0.3734,0.3734,0.3337,0.3361,0.338,0.3416,0.3439,0.3467,0.3484,0.3507,0.3531,0.3567,0.3592,0.3614,0.3646,0.3681,0.3709,0.3718,0.3729,0.3723,0.3735,0.3743,0.3746,0.3748,0.3744,0.3725,0.3725,0.3724,0.3724,0.3724]},{"header":{"parameterUnit":"m.s-1","parameterCategory":1,"la1":30.2991,"la2":30.254,"lo1":-89.0895,"lo2":-89.0444,"dy":0.0017,"dx":0.0017,"nx":28,"ny":28,"refTime":"2023-09-10T03:00:00:Z","depth":0,"parameterNumber":3,"parameterNumberName":"V-component_of_WINDS"},"data":[0,0,0,0,0,0,0,0,0,0,0,0,0,0,0,0,0,0,0,0,0,0,0,0,0,0,0,0,0,0,0,0,0,0,0,0,0,0,0,0,0,0,0,0,0,0,0,0,0,0,0,0,0,0,0,0,0,0,-0.8492,-0.8492,0,-0.8469,-0.8469,-0.8469,-0.8474,-0.8475,-0.8475,-0.8476,-0.8451,-0.845,-0.8449,0,0,0,0,0,0,0,0,0,0,0,0,0,-0.8541,-0.854,-0.8492,-0.8492,-0.8491,-0.8469,-0.8469,-0.8469,-0.8474,-0.8475,-0.8475,-0.8476,-0.8451,-0.845,-0.8449,0,0,0,0,0,0,0,0,0,0,0,0,0,-0.8519,-0.854,-0.8492,-0.8491,-0.8491,-0.8469,-0.8469,-0.8468,-0.8474,-0.8475,-0.8475,-0.8476,-0.8452,-0.845,-0.8449,-0.8425,0,0,-0.8444,-0.8443,0,0,0,0,0,0,0,0,-0.852,-0.8517,-0.8492,-0.8491,-0.8491,-0.8475,-0.8477,-0.8454,-0.8474,-0.8481,-0.8476,-0.8476,-0.8458,-0.8456,-0.8451,-0.8424,-0.8423,-0.8444,-0.8443,-0.8442,-0.8441,0,0,0,0,0,0,0,-0.8522,-0.8518,-0.8483,-0.8491,-0.8491,-0.8493,-0.849,-0.8473,-0.8466,-0.848,-0.848,-0.8478,-0.8458,-0.8452,-0.845,-0.8423,-0.8444,-0.8442,-0.8441,-0.8441,-0.838,-0.8379,0,0,0,0,0,0,-0.8524,-0.852,-0.8484,-0.8482,-0.8508,-0.8491,-0.8489,-0.848,-0.8466,-0.8465,-0.8477,-0.8478,-0.8455,-0.8452,-0.8449,-0.8423,-0.8442,-0.844,-0.8439,-0.838,-0.838,-0.8379,0,0,0,0,0,0,-0.8525,-0.8521,-0.8484,-0.8501,-0.8497,-0.849,-0.848,-0.8479,-0.8473,-0.8464,-0.8463,-0.8472,-0.8455,-0.8451,-0.8432,-0.8422,-0.844,-0.8438,-0.8381,-0.838,-0.8379,-0.837,0,0,0,0,0,0,-0.8526,-0.8521,-0.8511,-0.8501,-0.8496,-0.8467,-0.8479,-0.8478,-0.847,-0.8471,-0.8459,-0.8457,-0.8455,-0.8434,-0.843,-0.8421,-0.8437,-0.8382,-0.8381,-0.8379,-0.8371,-0.8369,-0.8367,0,0,0,0,0,-0.8528,-0.8508,-0.8511,-0.8506,-0.8484,-0.8467,-0.8464,-0.8462,-0.8469,-0.846,-0.8455,-0.8458,-0.8424,-0.8432,-0.8428,-0.8417,-0.8382,-0.8381,-0.838,-0.8372,-0.8369,-0.8367,0,0,0,0,0,0,-0.8517,-0.8507,-0.8509,-0.8486,-0.8477,-0.8468,-0.8456,-0.8458,-0.8447,-0.8448,-0.8446,-0.8444,-0.8425,-0.8419,-0.8428,-0.8396,-0.8404,-0.8402,-0.84,-0.8398,-0.8395,-0.8397,-0.8436,0,0,0,0,0,-0.8512,-0.8499,-0.8491,-0.8471,-0.8467,-0.8462,-0.8455,-0.8454,-0.8445,-0.8441,-0.8435,-0.8425,-0.8413,-0.8405,-0.8393,-0.837,-0.8369,-0.8361,-0.8359,-0.8357,-0.8356,-0.8346,-0.8343,-0.8374,-0.8374,-0.8374,0,0,-0.85,-0.8494,-0.8485,-0.8469,-0.8462,-0.8449,-0.8459,-0.8444,-0.8435,-0.8439,-0.8421,-0.8416,-0.8406,-0.8386,-0.8377,-0.8381,-0.8347,-0.8356,-0.8354,-0.8353,-0.8344,-0.8342,-0.8339,-0.8373,-0.8373,-0.8373,0,0,-0.8475,-0.8467,-0.8452,-0.8445,-0.8436,-0.8434,-0.843,-0.8421,-0.8418,-0.84,-0.8404,-0.8393,-0.8371,-0.8365,-0.8359,-0.8334,-0.8337,-0.833,-0.8319,-0.831,-0.8308,-0.8306,-0.8299,-0.8296,-0.8328,-0.8328,-0.8328,0,-0.8462,-0.8443,-0.8443,-0.8429,-0.8423,-0.8427,-0.8412,-0.8406,-0.8392,-0.8388,-0.8393,-0.8368,-0.8361,-0.8341,-0.8336,-0.833,-0.8327,-0.8332,-0.8308,-0.8306,-0.8304,-0.8298,-0.8295,-0.8328,-0.8328,-0.8328,-0.8328,0,-0.843,-0.8417,-0.8405,-0.8394,-0.8386,-0.8372,-0.837,-0.8362,-0.8364,-0.8361,-0.8345,-0.8337,-0.8325,-0.832,-0.832,-0.8301,-0.8304,-0.8309,-0.8317,-0.8301,-0.8295,-0.8292,-0.8327,-0.8327,-0.8327,-0.8327,0,0,-0.8394,-0.8386,-0.8381,-0.8378,-0.8369,-0.836,-0.8346,-0.8336,-0.833,-0.8321,-0.8311,-0.8295,-0.83,-0.8293,-0.8292,-0.8284,-0.8269,-0.829,-0.829,-0.8288,-0.825,-0.8247,-0.8244,-0.8271,-0.827,-0.827,-0.8251,0,-0.8369,-0.8346,-0.8347,-0.8326,-0.8316,-0.8321,-0.831,-0.8304,-0.8302,-0.8293,-0.8291,-0.828,-0.8286,-0.8283,-0.8275,-0.8272,-0.8261,-0.8273,-0.8262,-0.8262,-0.8265,-0.8241,-0.8238,-0.822,-0.8249,-0.8248,-0.8248,0,-0.8336,-0.8329,-0.8307,-0.8303,-0.8299,-0.8289,-0.8281,-0.8272,-0.8266,-0.8265,-0.826,-0.8262,-0.825,-0.8259,-0.8243,-0.8251,-0.8247,-0.8245,-0.8245,-0.8244,-0.8254,-0.8241,-0.8214,-0.8212,-0.8244,-0.8244,-0.8244,0,-0.8315,-0.83,-0.8286,-0.8282,-0.8276,-0.827,-0.8267,-0.8262,-0.8256,-0.8249,-0.8246,-0.8238,-0.8233,-0.8227,-0.8227,-0.8233,-0.8212,-0.822,-0.8212,-0.8212,-0.8207,-0.8208,-0.8181,-0.8203,-0.8203,-0.8203,-0.8203,0,-0.8288,-0.8275,-0.8277,-0.8268,-0.8255,-0.8256,-0.8243,-0.8241,-0.8237,-0.8229,-0.8232,-0.8225,-0.8225,-0.8217,-0.8217,-0.8206,-0.8203,-0.8203,-0.8204,-0.8203,-0.8204,-0.8201,-0.8202,-0.8202,-0.8202,-0.8203,-0.8203,0,-0.8262,-0.8262,-0.8248,-0.8245,-0.8244,-0.8234,-0.8232,-0.8224,-0.8224,-0.8214,-0.8211,-0.821,-0.8202,-0.8202,-0.8191,-0.8192,-0.8178,-0.8179,-0.818,-0.8181,-0.8173,-0.8174,-0.8144,-0.8141,-0.8164,-0.8164,-0.8164,0,-0.8245,-0.8236,-0.8232,-0.8228,-0.8225,-0.8217,-0.8213,-0.8215,-0.821,-0.8204,-0.8198,-0.819,-0.8184,-0.8171,-0.8169,-0.8162,-0.8164,-0.8154,-0.8163,-0.8164,-0.8166,-0.8167,-0.8167,-0.8152,-0.8152,-0.8152,-0.8152,0,-0.8216,-0.8217,-0.821,-0.8205,-0.82,-0.8195,-0.819,-0.8186,-0.8188,-0.8183,-0.8175,-0.817,-0.8162,-0.8154,-0.8148,-0.8146,-0.815,-0.8149,-0.8147,-0.8147,-0.8149,-0.815,-0.8177,-0.815,-0.815,-0.815,-0.815,-0.815,-0.8195,-0.8188,-0.8186,-0.8179,-0.8176,-0.8173,-0.8167,-0.8166,-0.816,-0.8154,-0.8155,-0.8147,-0.8144,-0.8136,-0.8134,-0.8128,-0.8131,-0.8128,-0.8127,-0.8126,-0.8127,-0.815,-0.8126,-0.8126,-0.8127,-0.8127,-0.8127,0,-0.8167,-0.8167,-0.8161,-0.8156,-0.8151,-0.8156,-0.8152,-0.8148,-0.8141,-0.8138,-0.8133,-0.8125,-0.8119,-0.8118,-0.8112,-0.8108,-0.811,-0.8106,-0.8107,-0.8107,-0.8123,-0.8126,-0.8105,-0.8105,-0.8105,-0.8105,-0.8105,-0.8105,-0.8152,-0.8142,-0.8144,-0.8133,-0.8132,-0.8125,-0.8123,-0.812,-0.8118,-0.811,-0.8105,-0.8105,-0.8103,-0.8098,-0.8093,-0.8093,-0.8091,-0.8088,-0.8089,-0.8103,-0.8106,-0.8108,-0.8111,-0.8087,-0.8087,-0.8073,-0.8073,-0.8073]}]]